User: anonymous   Login
Location: Unspecified
(0.0000°N, 0.0000°E)
Time: 08:55:50
(UTC+00:00)
Language:

Vela 1A - Orbit

View from above orbital plane
View from above orbital plane
View from above satellite
View from above satellite

Ground track
Ground track

The orbit data is extracted from the following two-line orbital elements,

1 00692U 63039C   15184.69521021 -.00000936  00000-0  00000+0 0  9991
2 00692 035.7651 002.6361 5621461 158.4839 359.4950 00.22104621 41735
Epoch (UTC): 03 July 2015 16:41:06
Eccentricity: 0.5621461
inclination: 35.7651°
perigee height: 44212 km
apogee height: 174116 km
right ascension of ascending node: 2.6361°
argument of perigee: 158.4839°
revolutions per day: 0.22104621
mean anomaly at epoch: 359.4950°
orbit number at epoch: 4173

The dashed part of the orbit path shows where the satellite is in the earth's shadow,  

DLR